Tracking 27079 objects as of 23-Mar-2023
HD Live streaming from Space Station
objects crossing your sky now

STARLINK-3535

Track STARLINK-3535 now!
10-day predictions
STARLINK-3535 is classified as:


NORAD ID: 51722
Int'l Code: 2022-016J
Perigee: 545.6 km
Apogee: 548.1 km
Inclination: 53.2 °
Period: 95.4 minutes
Semi major axis: 6917 km
RCS: Unknown
Launch date: February 21, 2022
Source: United States (US)
Launch site: AIR FORCE EASTERN TEST RANGE (AFETR)
Your satellite tracking list
Your tracking list is empty




NASA's NSSDC Master Catalog

Two Line Element Set (TLE):
1 51722U 22016J   23082.41723533  .00006683  00000-0  43750-3 0  9996
2 51722  53.2157 147.6311 0001850 117.8776 242.2403 15.08847546 60030
Source of the keplerian elements: AFSPC